Здесь можно обсудить качество телевидения,интернета и телефонии телекомпании Санкт-Петербургское кабельное телевидение ТВОЕ ТВ,ТВОЙ ИНТЕРНЕТ,ТВОЙ ТЕЛЕФОН и ТВОЙ УМНЫЙ ДОМ.

Добавь форум в закладки

Твое тв,твой интернет,твой телефон.

Объявление

Требуется модератор форума!Подробнее в теме "О форуме".

Информация о пользователе

Привет, Гость! Войдите или зарегистрируйтесь.


Вы здесь » Твое тв,твой интернет,твой телефон. » Свободное общение.Флейм.


Свободное общение.Флейм.

Тем 1 страница 30 из 39

Тема Ответов Просмотров Последнее сообщение
0 35 2024-04-09 16:47:12  PeterDew
0 17 2024-03-23 17:53:54  StevenAbino
0 19 2024-03-22 14:39:05  Jasongob
0 18 2024-03-14 02:34:47  JamesObepT
0 21 2024-03-07 10:43:16  Brianfex
0 21 2024-03-06 05:40:56  Micahwes
0 17 2024-03-04 13:42:19  WandaPaw
0 16 2024-03-02 16:53:24  Marvingom
0 28 2024-02-28 03:27:39  JoshuaPoomi
10 Thi cong noi that  ThomasSkida
0 16 2024-02-25 08:49:12  ThomasSkida
11 Thanks, +  Stevencob
0 21 2024-02-23 07:47:23  Stevencob
0 15 2024-01-23 10:36:12  Jimmysam
0 21 2023-12-21 05:36:40  mariaDex
14 thank you very much  Thomastem
0 29 2023-10-26 04:18:05  Thomastem
15 thanks, interesting read  KennethJem
0 25 2023-10-22 13:20:26  KennethJem
0 25 2023-09-17 16:02:04  airbnbveS
17 gmail gmail  gmailbew
0 27 2023-09-17 13:42:32  gmailbew
18 Christian riebold gmail  christiancoink
0 23 2023-09-12 00:02:16  christiancoink
0 16 2023-08-28 01:29:39  divalentinocof
20 From my contemplation  LeotaGrers
0 19 2023-08-09 06:36:41  LeotaGrers
0 24 2023-08-04 16:52:21  kapelariMuh
22 Антитрубка  MarvinPhict
3 22 2023-08-03 13:03:35  MarvinPhict
23 блэкспрут  GalenHof
0 23 2023-07-31 17:40:08  GalenHof
24 блекспрут  JamesPut
0 22 2023-07-30 14:21:42  JamesPut
0 22 2023-07-21 17:56:40  DonaldPom
0 23 2023-07-10 06:00:05  GruzSeet
27 tryptin189  Tryptin-cymn
0 28 2023-06-17 11:35:26  Tryptin-cymn
0 29 2023-05-31 09:22:42  Oleg
0 21 2023-05-30 16:18:43  qpxmbtrz
6 39 2023-05-16 16:03:00  preatormatod

Вы здесь » Твое тв,твой интернет,твой телефон. » Свободное общение.Флейм.


создать форум